Valparaiso, FL

12:44 AM CST on November 23, 2017 (GMT -0600)
Eglin Air Force Base

Weather History for KVPS - January, 2012

Change the Weather History Date:

Wednesday, January 18, 2012

  Actual Average Record
Temperature  
Mean Temperature 54 °F -  
Max Temperature 66 °F 61 °F 76 °F (1949)
Min Temperature 41 °F 37 °F 16 °F (1957)
Degree Days  
Heating Degree Days 12    
Growing Degree Days 4 (Base 50)    
Moisture  
Dew Point 49 °F    
Average Humidity 81    
Maximum Humidity 100    
Minimum Humidity 40    
Precipitation  
Precipitation 0.84 in - - ()
Sea Level Pressure  
Sea Level Pressure 30.10 in    
Wind  
Wind Speed 9 mph (NNW)    
Max Wind Speed 15 mph    
Max Gust Speed 22 mph    
Visibility 8 miles    
Events Rain , Thunderstorm    
Averages and records for this station are not official NWS values.
T = Trace of Precipitation, MM = Missing Value Source: NWS Daily Summary

Daily Weather History Graph

Daily Weather History Graph

Search for Another Location

Airport or City:

Trip Planner

Search our weather history database for the weather conditions in past years. The results will help you decide how hot, cold, wet, or windy it might be!

Date:

Astronomy

Jan. 18, 2012 Rise Set
Actual Time 6:43 AM CST 5:09 PM CST
Civil Twilight 6:17 AM CST 5:35 PM CST
Nautical Twilight 5:48 AM CST 6:05 PM CST
Astronomical Twilight 5:19 AM CST 6:34 PM CST
Moon 2:10 AM CST (1/18) 12:51 PM CST (1/18)
Length of Visible Light 11h 18m
Length of Day
10h 26m
Waning Crescent, 24% of the Moon is Illuminated
Jan 18
Waning Crescent
Jan 23
New
Jan 30
First Quarter
Feb 7
Full
Feb 14
Last Quarter

Hourly Weather History & Observations

Time (CST) Temp. Windchill Dew Point Humidity Pressure Visibility Wind Dir Wind Speed Gust Speed Precip Events Conditions
12:06 AM 66.2 °F - 64.4 °F 94% 30.07 in 1.5 mi WNW 12.7 mph 18.4 mph N/A Rain , Thunderstorm Thunderstorms and Rain
12:27 AM 60.8 °F - 60.8 °F 100% 30.05 in 2.0 mi SW 9.2 mph - N/A Rain , Thunderstorm Light Thunderstorms and Rain
12:35 AM 62.6 °F - 62.6 °F 100% 30.06 in 3.0 mi WSW 9.2 mph - N/A Rain , Thunderstorm Light Thunderstorms and Rain
12:55 AM 62.1 °F - 62.1 °F 100% 30.06 in 4.0 mi WSW 6.9 mph - 0.66 in Rain , Thunderstorm Light Thunderstorms and Rain
1:55 AM 62.2 °F - 62.2 °F 100% 30.04 in 4.0 mi SW 5.8 mph - 0.17 in Rain , Thunderstorm Light Thunderstorms and Rain
2:04 AM 62.6 °F - 62.6 °F 100% 30.03 in 5.0 mi West 4.6 mph - N/A   Overcast
2:11 AM 62.6 °F - 62.6 °F 100% 30.03 in 5.0 mi West 3.5 mph - N/A   Overcast
2:36 AM 62.6 °F - 62.6 °F 100% 30.02 in 4.0 mi West 4.6 mph - N/A   Light Drizzle
2:55 AM 60.6 °F - 60.6 °F 100% 30.04 in 3.0 mi North 11.5 mph - 0.01 in   Light Drizzle
3:14 AM 59.0 °F - 57.2 °F 94% 30.04 in 7.0 mi NNW 12.7 mph 21.9 mph N/A   Overcast
3:55 AM 56.7 °F - 54.5 °F 92% 30.06 in 8.0 mi North 12.7 mph - 0.00 in   Overcast
4:16 AM 55.4 °F - 53.6 °F 94% 30.06 in 8.0 mi North 11.5 mph 20.7 mph N/A   Overcast
4:55 AM 55.4 °F - 53.1 °F 92% 30.07 in 10.0 mi North 11.5 mph - N/A   Overcast
5:55 AM 54.3 °F - 53.2 °F 96% 30.09 in 10.0 mi NNW 6.9 mph - N/A   Mostly Cloudy
6:55 AM 52.7 °F - 50.4 °F 92% 30.12 in 10.0 mi North 11.5 mph - N/A   Mostly Cloudy
7:55 AM 52.0 °F - 48.9 °F 89% 30.14 in 10.0 mi North 11.5 mph - N/A   Mostly Cloudy
8:55 AM 51.6 °F - 47.1 °F 85% 30.17 in 10.0 mi North 13.8 mph - N/A   Mostly Cloudy
9:55 AM 53.2 °F - 44.2 °F 72% 30.19 in 10.0 mi North 15.0 mph 19.6 mph N/A   Mostly Cloudy
10:55 AM 53.2 °F - 44.2 °F 72% 30.17 in 10.0 mi North 12.7 mph - N/A   Mostly Cloudy
11:55 AM 54.5 °F - 42.1 °F 63% 30.14 in 10.0 mi North 12.7 mph - N/A   Mostly Cloudy
12:55 PM 55.4 °F - 41.4 °F 59% 30.12 in 10.0 mi NNW 9.2 mph - N/A   Mostly Cloudy
1:55 PM 59.7 °F - 41.0 °F 50% 30.09 in 10.0 mi NW 8.1 mph - N/A   Partly Cloudy
2:55 PM 61.2 °F - 39.0 °F 44% 30.10 in 10.0 mi NNW 10.4 mph - N/A   Partly Cloudy
3:55 PM 61.2 °F - 36.3 °F 40% 30.11 in 10.0 mi NNW 9.2 mph - N/A   Partly Cloudy
4:55 PM 58.6 °F - 36.0 °F 43% 30.13 in 10.0 mi North 8.1 mph - N/A   Partly Cloudy
5:55 PM 52.5 °F - 37.8 °F 57% 30.14 in 10.0 mi NNW 4.6 mph - N/A   Partly Cloudy
6:55 PM 48.2 °F - 38.3 °F 69% 30.14 in 10.0 mi North 5.8 mph - N/A   Clear
7:55 PM 46.2 °F 45.0 °F 38.3 °F 74% 30.15 in 10.0 mi North 3.5 mph - N/A   Clear
8:55 PM 44.2 °F 41.8 °F 37.6 °F 77% 30.16 in 10.0 mi NNW 4.6 mph - N/A   Clear
9:55 PM 42.6 °F 37.8 °F 36.7 °F 79% 30.16 in 10.0 mi North 8.1 mph - N/A   Clear
10:55 PM 41.5 °F 37.1 °F 36.0 °F 81% 30.15 in 10.0 mi North 6.9 mph - N/A   Clear
11:55 PM 41.0 °F - 34.7 °F 78% 30.12 in 10.0 mi NNE 2.3 mph - N/A   Clear